Retour au catalogue

FREGAT RB/CLUSTER 2

ActifScienceHEO
NORAD 26106·PAYLOAD·🇷🇺 Russia

Lancé Mar 20, 2000 depuis Baikonur Cosmodrome

Loading…

Prochains Passages (prochaines 24 heures)

TLE

FraisSource: Space-Track

Époque: Sep 13, 2026, 19:40 UTC

1 26106U 00015A   26256.81965102  .00000018  00000-0  46237-4 0  9999
2 26106  65.1037  92.5455 5467407 258.8295  38.0407  4.61259870442296

Suivez FREGAT RB/CLUSTER 2 en temps réel avec AllMySat

Download on the App Store